User: anonymous   Login
Location: Unspecified
(0.0000°N, 0.0000°E)
Time: 07:09:23
(UTC+00:00)
Language:

Cosmos 1299 - Orbit

View from above orbital plane
View from above orbital plane
View from above satellite
View from above satellite

Ground track
Ground track

The orbit data is extracted from the following two-line orbital elements,

1 12783U 81081A   18016.79144424 -.00000079  00000-0  84171-5 0  9993
2 12783  65.1170 105.1808 0042104 206.2279 153.6651 13.85368224841490
Epoch (UTC): 16 January 2018 18:59:40
Eccentricity: 0.0042104
inclination: 65.1170°
perigee height: 914 km
apogee height: 976 km
right ascension of ascending node: 105.1808°
argument of perigee: 206.2279°
revolutions per day: 13.85368224
mean anomaly at epoch: 153.6651°
orbit number at epoch: 84149

The dashed part of the orbit path shows where the satellite is in the earth's shadow,  

DLR